Regional Weather Roundup
Issued by NWS

Home | Current Version | Previous Version | Text Only | Print | Product List | Glossary On
Versions: 1 2 3 4 5 6 7 8 9 10 11 12 13 14 15 16 17 18 19 20 21 22 23 24 25 26 27 28 29 30 31 32 33 34 35 36 37 38 39 40 41 42 43 44 45 46 47 48 49 50
000
ASUS43 KLSX 301859
RWRMO

WEATHER SUMMARY FOR MISSOURI
NATIONAL WEATHER SERVICE SPRINGFIELD MO
200 PM CDT SAT MAY 30 2015

NOTE: "FAIR" INDICATES FEW OR NO CLOUDS BELOW 12,000 FEET WITH NO
       SIGNIFICANT WEATHER AND/OR OBSTRUCTIONS TO VISIBILITY.
       CURRENT SKY AND/OR WEATHER CONDITIONS ARE NOT AVAILABLE FOR
       CHILLICOTHE AND FARMINGTON.

MOZ001>031-035>038-043-044-053-054-302000-
...NORTHERN AND WESTERN MISSOURI...

CITY           SKY/WX    TMP DP  RH WIND       PRES   REMARKS
KANSAS CTY INT CLOUDY    59  55  87 NW10      30.12S
KANSAS C DTWN  CLOUDY    61  54  77 NW8G17    30.11S
LEE`S SUMMIT   CLOUDY    60  55  83 NW10      30.11S
ST JOSEPH      CLOUDY    60  54  80 N15       30.14R
CHILLICOTHE      N/A     64  57  78 N8        30.09S
KIRKSVILLE     CLOUDY    63  59  87 N10       30.06S

$$
MOZ066>068-077>081-088>096-101>105-302000-
...SOUTHWEST MISSOURI...

CITY           SKY/WX    TMP DP  RH WIND       PRES   REMARKS
SPRINGFIELD    PTSUNNY   70  64  81 NW14G21   30.05R
JOPLIN         CLOUDY    63  59  87 NW13      30.11S

$$
MOZ032>034-039>042-045>050-055>058-069>072-302000-
...CENTRAL MISSOURI...

CITY           SKY/WX    TMP DP  RH WIND       PRES   REMARKS
COLUMBIA       PTSUNNY   72  66  81 NW9       30.00S
JEFFERSON CITY CLOUDY    72  66  81 W17       29.98F
ROLLA          LGT RAIN  68  67  96 NW6       29.98S
SEDALIA        CLOUDY    65  59  81 NW14      30.07R
OSAGE BEACH    CLOUDY    72  64  78 W9G16     30.01S

$$
MOZ051-052-059>065-302000-
...EAST CENTRAL MISSOURI...

CITY           SKY/WX    TMP DP  RH WIND       PRES   REMARKS
ST LOUIS INTL  CLOUDY    71  65  81 NW10      29.94F
SPIRIT OF STL  CLOUDY    71  67  87 NW7       29.94F
ST CHARLES     CLOUDY    70  66  87 N9        29.94F

$$
MOZ072>076-082>087-097>100-106>115-302000-
...SOUTH CENTRAL AND SOUTHEAST MISSOURI...

CITY           SKY/WX    TMP DP  RH WIND       PRES   REMARKS
CAPE GIRARDEAU CLOUDY    72  68  87 S12G22    29.89F
FARMINGTON     CLOUDY    68  64  88 NW8       29.96F
POPLAR BLUFF   RAIN      70  68  93 W13       29.90R FOG
WEST PLAINS    LGT RAIN  74  67  78 NW9       29.99F

$$


USA.gov is the U.S. government's official web portal to all federal, state and local government web resources and services.